Regional Weather Roundup
Issued by NWS

Home | Current Version | Previous Version | Graphics & Text | Print | Product List | Glossary On
Versions: 1 2 3 4 5 6 7 8 9 10 11 12 13 14 15 16 17 18 19 20 21 22 23 24 25 26 27 28 29 30 31 32 33 34 35 36 37 38 39 40 41 42 43 44 45 46 47 48 49 50
000
ASUS45 KTFX 111310
RWRMT
MONTANA REGIONAL WEATHER ROUNDUP
NATIONAL WEATHER SERVICE GREAT FALLS MT
600 AM MST THU FEB 11 2016

NOTE: "FAIR" INDICATES FEW OR NO CLOUDS BELOW 12000 FEET WITH NO
SIGNIFICANT WEATHER AND/OR OBSTRUCTIONS TO VISIBILITY.

MTZ001>007-043-111400-
WEST OF THE DIVIDE

CITY           SKY/WX    TMP DP  RH WIND       PRES   REMARKS
KALISPELL      CLOUDY    32  29  88 CALM      30.24R
MISSOULA       MOCLDY    32  30  92 CALM      30.29S
BUTTE          CLOUDY    31  23  72 CALM      30.24R
MULLAN PASS    CLOUDY    33  31  92 VRB5      30.25S
ANACONDA         N/A     43  27  52 SE6       30.23R
DEER LODGE       N/A     36  27  69 W6        30.25R WCI  31
HAMILTON         N/A     46  30  53 SE5       30.27S
PLAINS           N/A     36  32  85 SE2       30.26S
$$

MTZ008-052>055-111400-
SOUTHWEST MONTANA

CITY           SKY/WX    TMP DP  RH WIND       PRES   REMARKS
BOZEMAN        CLOUDY    29  23  78 CALM      30.23R
DILLON         CLOUDY    34  23  64 S13       30.22R WCI  25
ENNIS          MOCLDY    37  23  56 S18G26    30.29R WCI  27
THREE FORKS      N/A     29  29 100 CALM      30.18R
$$

MTZ009-010-012-014-046-048-049-054-111400-
EAST SLOPES AND CENTRAL MONTANA

CITY           SKY/WX    TMP DP  RH WIND       PRES   REMARKS
CUT BANK       MOCLDY    42  26  53 W23       30.06R
GREAT FALLS    CLOUDY    35  23  61 SW5       30.11S
MALMSTROM AFB  CLOUDY    39  26  61 W8        30.12R
HELENA         CLOUDY    40  30  67 CALM      30.20R
CHOTEAU          N/A     46  25  42 W10G20    30.12S
CONRAD           N/A     44  30  58 SW15      30.09R
$$

MTZ011-013-016-021-045-047-050-051-111400-
NORTH CENTRAL MONTANA

CITY           SKY/WX    TMP DP  RH WIND       PRES   REMARKS
HAVRE          CLOUDY    29  28  96 W5        30.03R FOG
LEWISTOWN      CLEAR     41  29  62 W23       30.06R
N BAR RANCH      N/A     45  27  49 NW24G32   30.05R
CHINOOK          N/A     32  30  93 W6        30.02S WCI  26
$$

MTZ017>020-022>027-061-062-111400-
NORTHEAST MONTANA

CITY           SKY/WX    TMP DP  RH WIND       PRES   REMARKS
GLASGOW        CLOUDY    29  25  85 E9        30.01R WCI  20
JORDAN           N/A     30  29  96 W5        29.97R
SIDNEY         CLOUDY    28  25  86 NE3       30.04S VSB 3/4
WOLF POINT     LGT SNOW  28  23  81 NE12      30.04S WCI  18
PLENTYWOOD       N/A     21  18  86 E9        30.06R WCI  11
POPLAR           N/A     25  23  93 NE7       30.05R WCI  17
SCOBEY           N/A     23  16  75 N6        30.02R WCI  16
$$

MTZ028>42-056>058-111400-
SOUTHCENTRAL AND SOUTHEAST MONTANA

CITY           SKY/WX    TMP DP  RH WIND       PRES   REMARKS
BAKER          CLOUDY    31  27  85 SE6       29.96F WCI  25
BILLINGS       PTCLDY    50  23  34 NW15      30.06R
LIVINGSTON     CLOUDY    47  21  35 SW28G36   30.15S
MILES CITY     CLOUDY    31  28  89 NW3       29.98S
EKALAKA          N/A     39  27  62 W9        29.93S
FORSYTH          N/A     32  30  93 SW10      30.00R WCI  24
LAUREL           N/A     44  20  38 W1        30.05R
ROUNDUP          N/A     46  25  44 W12       29.96R
$$

REGIONAL REPORTS...DAKOTAS

CITY           SKY/WX    TMP DP  RH WIND       PRES   REMARKS
WILLISTON      LGT SNOW  23  19  85 E6        30.07S FOG     WCI  16
MINOT          CLOUDY    14   7  73 E5        30.13S
DICKINSON      LGT SNOW  24  22  91 E8        29.99S FOG     WCI  15
BEACH          LGT SNOW  28  28 100 E7        29.99F WCI  21
CROSBY         LGT SNOW  16  16 100 E9        30.12S WCI   4
TIOGA          LGT SNOW  18  18 100 E5        30.12R
WATFORD CITY   LGT SNOW  23  19  86 E10       30.05F WCI  12
BISMARCK       LGT SNOW  19  14  81 SE6       30.13F WCI  11
GRAND FORKS    CLOUDY     6  -1  73 SE6       30.26F WCI  -4
FARGO          CLOUDY     7  -1  70 E3        30.27F
BUFFALO SD       N/A     31  29  92 S9        29.92R WCI  23
RAPID CITY     FOG       27  27 100 SE6       30.00F VSB 1/2 WCI  20
$$

REGIONAL REPORTS...WYOMING/IDAHO/WASHINGTON

CITY           SKY/WX    TMP DP  RH WIND       PRES   REMARKS
GILLETTE       CLOUDY    42  24  49 W9        30.03R
SHERIDAN       CLEAR     43  23  45 CALM      30.02S
BUFFALO WY     CLOUDY    45  21  38 W5        30.05R
CODY           CLOUDY    52  18  25 NW5G17    30.10R
YELLOWSTONE LA   N/A     23  17  78 CALM      30.32S
IDAHO FALLS    CLOUDY    14  10  84 N9        30.40S WCI   2
SALMON         CLOUDY    12  10  92 CALM      30.41R
BOISE          MOCLDY    32  30  92 W3        30.41R
SPOKANE        FOG       33  32  96 CALM      30.29F VSB 1/16
$$

REGIONAL REPORTS...ALBERTA

CITY           SKY/WX    TMP DP  RH WIND       PRES   REMARKS
EDMONTON       LGT SNOW  19  16  86 E5        30.12R
CALGARY        PTCLDY    27  27 100 CALM      30.06R
LETHBRIDGE     FOG       27  27 100 NW7       30.07R VSB 1/4 WCI  19
MEDICINE HAT   CLOUDY    28  28 100 N6        30.06R WCI  22
WATERTON GATE    N/A     46  18  31 SW24G41     N/A
CARDSTON         N/A     45  21  39 W13G18      N/A
MILK RIVER       N/A     41  27  56 W20         N/A
ONEFOUR          N/A     32  28  86 NW15        N/A  WCI  22
$$

REGIONAL REPORTS...SASKATCHEWAN

CITY           SKY/WX    TMP DP  RH WIND       PRES   REMARKS
SWIFT CURRENT  LGT SNOW  18  18 100 E13       30.02S WCI   4
REGINA         FLURRIES  14  10  85 E5        30.14R
SASKATOON      FLURRIES   9   7  92 E9        30.23R WCI  -5
CYPRESS HILLS    N/A     28  27  93 NW13G21     N/A  WCI  18
VAL MARIE        N/A     28  27  93 E7          N/A  WCI  21
ROCKGLEN         N/A     19  19 100 NE2         N/A
ASSINIBOIA       N/A     18  14  86 E6          N/A  WCI   9
$$



USA.gov is the U.S. government's official web portal to all federal, state and local government web resources and services.